Regional Weather Roundup
Issued by NWS Upton, NY

Current Version | Previous Version | Graphics & Text | Print | Product List | Glossary Off
Versions: 1 2 3 4 5 6 7 8 9 10 11 12 13 14 15 16 17 18 19 20 21 22 23 24 25 26 27 28 29 30 31 32 33 34 35 36 37 38 39 40 41 42 43 44 45 46 47 48 49 50

648
ASUS41 KOKX 271409
RWROKX

REGIONAL WEATHER ROUNDUP
NATIONAL WEATHER SERVICE NEW YORK NY
1000 AM EDT SAT MAY 27 2017

NOTE: "FAIR" INDICATES FEW OR NO CLOUDS BELOW 12,000 FEET WITH NO
SIGNIFICANT WEATHER AND/OR OBSTRUCTIONS TO VISIBILITY.

NYZ071-072-176-178-NJZ106-104-271500-
NEW YORK CITY METRO AREA

CITY           SKY/WX    TMP DP  RH WIND       PRES   REMARKS
Central Park   MOSUNNY   66  54  65 CALM      29.91R
Wall St Helipt MOSUNNY   70  55  60 S5        29.89S
Bronx Bot Gard   N/A     68  54  60 N3        29.90S
LaGuardia APRT PTSUNNY   68  53  58 NW5       29.87S
Kennedy INTL   MOSUNNY   69  56  62 NW5       29.88S
Breezy Point     N/A     63 N/A N/A W8G14       N/A
Newark/Liberty PTSUNNY   69  54  58 NW6       29.87S
Teterboro      MOSUNNY   69  56  62 VRB3      29.86S
$$

NYZ177-179-078>081-271500-
LONG ISLAND NEW YORK

CITY           SKY/WX    TMP DP  RH WIND       PRES   REMARKS
Jones Beach      N/A     63 N/A N/A S8          N/A
Matinecock PT  NOT AVBL
Farmingdale    SUNNY     68  53  58 NW6       29.87S
MacArthur/ISP  PTSUNNY   67  54  63 N8        29.87S
Shirley        MOSUNNY   66  54  65 N8        29.88R
Mt Sinai Harb    N/A     63 N/A N/A CALM        N/A
Westhampton    MOSUNNY   64  50  60 N9        29.89R
East Hampton     N/A     62  49  62 N13       29.87R
Montauk          N/A     61  52  72 N6        29.89R
$$

NYZ052-065-067-271500-
HUDSON VALLEY

CITY           SKY/WX    TMP DP  RH WIND       PRES   REMARKS
White Plains   MOSUNNY   66  53  63 W7        29.87S
Larchmont Harb   N/A     61 N/A N/A E3          N/A
Croton O-T Hud   N/A     63 N/A N/A SW3         N/A
Newburgh       PTSUNNY   64  55  72 CALM      29.89S
Montgomery     PTSUNNY   68  55  63 VRB5      29.87S
Poughkeepsie   PTSUNNY   63  52  67 N5        29.87S
Albany         PTSUNNY   58  48  69 N8        29.91S
$$

NJZ001-105-106-008-010-013-015-019>022-104-271500-
NEW JERSEY

CITY           SKY/WX    TMP DP  RH WIND       PRES   REMARKS
Newark/Liberty PTSUNNY   69  54  58 NW6       29.87S
Teterboro      MOSUNNY   69  56  62 VRB3      29.86S
Caldwell       MOSUNNY   70  53  54 W3        29.88S
Somerville     CLOUDY    69  56  62 VRB3      29.87S
Linden           N/A     69  54  59 N8        29.88S
Perth Amboy      N/A     64 N/A N/A NW6         N/A
Sussex         CLOUDY    66  55  67 N6        29.89S
Andover          N/A     67  57  70 CALM      29.89S
Trenton        MOSUNNY   68  55  63 NW5       29.89S
Millville      SUNNY     70  55  59 NW8       29.91F
Atlantic City  NOT AVBL
Wrightstown    MOSUNNY   69  56  61 W5        29.88S
Toms River     MOSUNNY   70  55  59 NW8       29.90S
Belmar         PTSUNNY   66  55  68 NW5       29.91R
$$

PAZ047>061-062-071-271500-
EASTERN PENNSYLVANIA

CITY           SKY/WX    TMP DP  RH WIND       PRES   REMARKS
Philadelphia   CLOUDY    69  53  56 NW6       29.90F
Allentown      MOSUNNY   68  55  63 W8        29.90S
Scranton       CLOUDY    62  54  74 W7        29.91S
$$

CTZ002-004>006-009-010-012-RIZ004-006-007-MAZ004-011-015-271500-
SOUTHERN NEW ENGLAND
 IN CT

CITY           SKY/WX    TMP DP  RH WIND       PRES   REMARKS
Bradley INTL   CLOUDY    59  47  64 N7        29.89R
Hartford       CLOUDY    60  47  61 N5        29.88R
Danbury        PTSUNNY   63  53  70 N10       29.89R
Wtrbury/Oxford PTSUNNY   61  46  59 N7        29.88S
Bridgeport     CLOUDY    68  52  56 N9        29.87R
Meriden        CLOUDY    61  50  67 N7        29.88S
New Haven      PTSUNNY   63  50  62 N14       29.87R
Chester        CLOUDY    59  48  67 NW9       29.88R
Groton         CLOUDY    59  50  72 N7        29.87R
Wilimantic     CLOUDY    59  48  67 N6        29.89R

 IN RI

CITY           SKY/WX    TMP DP  RH WIND       PRES   REMARKS
Providence     CLOUDY    59  50  72 NW6       29.87R
Block Island   CLOUDY    59  50  72 NW9       29.88R
Westerly       CLOUDY    61  49  64 NW10      29.88R
 IN MA

CITY           SKY/WX    TMP DP  RH WIND       PRES   REMARKS
Boston         PTSUNNY   60  51  72 NE6       29.85S
Worcester      PTSUNNY   57  44  62 VRB3      29.87R
Westfield      CLOUDY    58  49  72 NW7       29.88
Provincetown   MOSUNNY   56  52  86 NW8       29.86R
Nantucket      CLOUDY    59  49  69 N12       29.86R
$$

ANZ330-335-338-340-345-350-353-355-271500-
COASTAL MARINE OBSERVATIONS


STATION/POSITION TIME  SKY/WX   TEMP    WIND        PRES    VSBY  WAVE
                                AIR SEA DIR/SP/G                  HT/PER
                 (UTC)          (F)     (DEG/KT/KT) (MB)    (MI)  (FT/S)
NY HARB ENTRANCE 1250            59 57  270/  6/  8 1011.7          3/ 7
20 S FIRE ISLAND 1350            57 56  270/  4/  6 1011.6          4/ 7
GREAT SOUTH BAY  NOT AVBL
23 SSW MONTAUK P 1250            56 54              1011.5          4/ 7
15 E BARNEGAT LI 1300               58                N/A           3/ 8
HUDSON CANYON    1250            56 55  280/  4/  4 1011.9          4/ 7
KINGS POINT      1342            62 58   20/  2/  3 1011.6
EXECUTION ROCKS  1330            64                   N/A
CENTRAL LI SOUND NOT AVBL
EASTERN LI SOUND NOT AVBL
ROBBINS REEF     1342            64     150/  4/  5 1012.4
$$


>>>>>>>>>>>>>>>>>>>>>>>>>>>> KEY <<<<<<<<<<<<<<<<<<<<<<<<<<<
>                                                          <
>     SKY/WX - Sky Condition/Present Weather               <
>     TMP    - Temperature in Fahrenheit                   <
>     DP     - Dew Point in Fahrenheit                     <
>     RH     - Relative Humidity in Percent                <
>     WIND   - Direction (from) and Speed in MPH           <
>     PRES   - Mean Sea Level Pressure (inches of Hg)      <
>     WCI    - Wind Chill Index                            <
>     VSB    - VISIBILITY IN MILES                         <
>     HX     - HEAT INDEX                                  <
>     TC     - TEMPERATURE IN CELSIUS                      <
>     VRB    - VARIABLE WIND DIRECTION                     <
>                                                          <
>>>>>>>>>>>>>>>>>>>>>>>>>>>> KEY <<<<<<<<<<<<<<<<<<<<<<<<<<<




USA.gov is the U.S. government's official web portal to all federal, state and local government web resources and services.